RH
47 45 37 17 32 59 69 64 50 53 51 47 37 33 34 35 30 33 39 19 21 28 28 28 27 23 24 28 28 32 36 38 40 38 41 33 30 27 24 20 19 18 18 20
63 59 51 34 21 35 66 68 64 50 55 51 48 43 37 35 35 32 29 39 42 30 22 19 25 25 28 27 24 24 25 30 31 33 33 35 32 29 29 30 25 22 24 22
61 67 66 62 45 27 37 70 74 65 55 59 51 50 48 42 39 34 35 31 31 32 30 36 37 32 24 17 19 20 21 21 21 22 22 23 24 24 25 24 23 21 20 18
68 76 82 75 71 57 33 41 74 75 64 58 67 54 52 52 50 43 37 36 36 35 33 33 32 30 29 27 26 28 29 27 23 16 14 16 16 16 15 15 15 16 16 17
95 91 92 88 87 68 63 59 50 74 80 67 58 66 62 56 54 51 47 43 40 41 43 42 40 40 40 39 38 34 31 25 21 20 22 23 24 21 21 24 25 26 27 29
91 90 91 92 88 77 66 66 72 62 74 78 64 61 64 65 62 57 55 48 40 39 41 42 40 39 39 37 39 42 48 44 42 39 35 29 24 23 23 22 23 23 22 24
92 88 88 93 86 75 69 69 75 71 68 79 80 64 61 64 64 65 64 61 57 52 48 41 38 37 34 35 35 40 40 37 32 34 35 38 40 33 30 28 29 28 28 29
84 83 87 85 78 71 75 76 72 69 72 72 82 83 65 59 61 64 64 67 65 62 57 52 46 43 40 36 33 31 33 38 37 36 36 31 33 38 35 31 27 30 30 28
39 70 86 91 80 65 88 85 79 68 73 82 79 87 89 74 63 61 64 66 66 63 59 55 50 46 41 38 44 50 49 48 49 43 39 34 42 44 43 39 35 37 34 36
34 61 77 82 69 70 97 96 89 79 80 95 86 82 91 87 79 71 67 62 61 61 56 53 50 52 54 51 53 59 63 63 66 66 60 53 62 57 51 50 49 51 51 53
54 64 70 65 60 75 97 98 96 93 80 95 95 86 86 87 86 85 82 80 78 74 70 70 70 66 67 73 73 76 79 84 87 91 88 80 75 68 66 63 63 61 59 58
71 68 66 65 74 90 98 98 97 92 71 89 99 100 98 95 89 88 89 86 85 80 81 78 74 78 81 82 82 91 92 94 98 100 95 90 77 71 71 66 62 58 56 52
85 77 79 73 91 96 98 98 96 95 87 75 95 100 100 98 98 97 96 96 97 96 96 94 89 82 78 80 80 85 86 92 96 97 99 93 80 68 64 59 55 53 55 56
100 100 94 91 98 97 96 99 96 96 96 86 91 99 98 98 100 98 97 98 98 96 96 92 88 86 82 79 77 73 80 86 94 80 82 76 75 69 68 66 65 64 57 47
100 100 99 98 98 97 96 98 97 98 99 94 99 99 97 97 98 98 99 98 98 96 95 94 94 90 84 71 66 63 88 97 82 69 76 73 68 67 67 66 60 54 48 43
100 98 95 96 97 97 99 98 97 97 98 98 98 95 96 98 98 98 98 98 98 97 96 92 84 85 80 64 56 59 83 81 84 76 77 78 72 65 64 59 53 48 45 43
100 100 99 99 99 98 100 97 94 100 100 98 98 92 87 96 100 100 98 99 99 97 96 87 84 83 76 65 62 96 80 72 72 67 67 66 67 62 58 53 49 46 45 46
100 100 99 100 100 100 99 99 98 100 100 100 95 80 82 99 100 100 99 98 98 96 93 85 87 83 81 65 94 77 74 72 71 76 77 71 63 58 53 49 47 46 49 54
100 100 100 100 100 98 100 100 100 100 100 99 91 88 88 95 100 100 99 100 98 93 92 92 86 75 76 98 77 70 72 64 62 66 64 57 52 55 57 59 65 67 66 57
100 100 100 100 100 100 100 100 100 100 100 97 90 90 95 100 100 100 100 100 99 91 86 88 81 76 100 84 76 69 65 61 58 57 58 60 62 62 66 68 64 54 36 19
100 100 100 100 100 100 100 100 100 98 96 94 90 96 100 100 100 100 99 94 91 85 80 88 76 77 84 71 64 58 56 61 64 64 64 66 68 71 60 39 23 11 10 8
100 100 100 100 100 100 100 100 99 97 97 95 98 100 100 99 100 100 97 97 95 90 83 82 75 85 66 56 52 57 64 65 67 70 71 63 46 25 12 11 12 15 17 21
100 100 100 100 99 100 97 96 98 100 99 100 100 100 100 100 100 100 100 98 95 93 88 82 87 67 55 53 58 66 69 69 64 53 35 14 8 9 17 28 32 35 34 33
100 100 100 100 99 99 100 100 100 100 99 98 98 100 100 98 100 99 98 100 96 85 85 90 78 68 68 68 70 64 50 34 19 10 10 12 17 23 28 33 38 37 34 28
100 100 100 100 100 100 100 100 100 99 100 100 100 99 99 99 99 98 95 99 92 90 91 82 77 71 64 51 31 14 9 12 16 20 24 31 33 36 34 36 33 34 26 28
100 98 100 100 100 100 100 100 98 97 94 97 95 93 96 99 100 99 100 95 91 83 74 63 51 29 14 10 10 19 31 28 26 36 40 34 34 33 27 25 25 25 31 37
93 99 100 100 100 100 100 100 100 100 100 100 100 99 99 96 94 90 82 74 64 44 22 14 13 15 20 32 40 35 34 41 42 40 36 38 33 30 23 22 30 36 33 29
Wind_Speed
26 25 23 22 20 19 18 15 15 14 11 8 10 11 14 14 16 17 15 12 11 12 13 13 14 14 17 18 17 18 12 8 8 8 4 14 19 22 25 26 26 25 23 22
27 27 26 21 22 22 20 18 16 15 15 11 7 7 8 11 11 13 14 14 14 13 11 11 11 12 12 12 12 10 10 7 5 2 1 7 9 16 16 15 18 21 19 21
33 30 29 27 24 22 22 20 20 17 15 16 13 9 6 5 8 8 9 10 11 12 14 14 13 12 11 9 7 6 5 3 1 1 5 6 8 11 13 14 16 18 17 21
36 34 32 29 28 26 24 22 21 21 18 17 16 14 11 9 6 6 6 5 6 7 8 9 9 11 10 10 10 9 7 4 2 4 6 7 10 13 16 18 22 23 26 27
40 37 34 33 30 29 28 27 26 23 22 20 20 20 19 15 11 10 9 7 6 5 4 5 5 6 7 5 5 4 4 3 4 5 5 5 8 11 12 16 20 20 23 26
42 40 38 36 36 32 33 31 31 30 26 24 22 23 23 22 19 16 14 13 12 11 10 9 8 8 6 6 9 11 11 9 8 9 9 9 13 17 21 24 26 26 27 29
48 45 44 41 39 39 36 36 35 34 32 30 26 25 24 25 26 24 22 20 19 18 16 15 14 14 15 16 17 17 16 19 23 23 20 18 18 18 20 24 25 27 30 33
54 49 49 47 44 43 42 40 40 38 35 34 31 30 27 26 26 27 28 27 25 24 23 23 20 20 20 20 20 23 25 28 29 28 29 29 29 28 29 32 33 32 35 38
59 55 53 53 49 49 48 44 42 42 40 33 36 35 33 31 29 28 26 28 28 28 28 28 27 26 26 29 27 26 30 31 34 36 38 40 39 36 35 38 38 41 44 46
64 61 58 56 55 56 49 47 46 45 44 40 37 39 37 37 35 33 31 31 32 31 32 33 33 33 33 34 34 35 36 39 40 41 43 44 43 44 47 48 51 52 51 52
69 67 65 62 60 60 53 52 50 48 47 44 42 41 40 40 40 39 37 37 35 36 37 37 37 38 39 40 42 43 44 46 45 45 45 48 48 49 50 53 55 55 56 57
74 71 68 66 62 64 58 55 55 51 49 46 45 45 43 42 43 44 42 41 40 41 42 42 44 46 47 46 48 47 49 49 50 46 48 48 50 51 54 56 57 58 61 62
78 75 73 70 68 64 62 60 56 55 53 50 47 47 46 44 43 45 45 45 46 46 45 45 46 47 48 48 48 49 51 50 49 49 48 49 54 58 59 59 60 62 65 66
77 80 76 73 69 69 67 61 58 55 56 53 51 49 50 49 48 47 48 48 48 49 49 49 48 47 48 48 48 49 49 48 47 49 50 54 57 58 61 63 65 66 67 70
69 74 74 71 71 71 73 63 58 55 54 54 50 51 51 52 51 51 51 51 51 50 48 47 46 46 46 48 50 49 48 47 51 54 56 60 62 64 65 67 68 70 73 76
66 67 66 67 69 66 61 58 55 52 51 51 51 52 52 52 52 52 52 51 50 48 47 45 46 46 47 49 49 48 48 52 55 57 60 62 64 65 67 69 71 73 76 79
59 61 60 59 54 56 57 55 51 48 47 48 49 49 50 49 50 49 50 48 47 47 46 46 47 48 50 51 51 49 55 58 60 62 64 65 68 69 71 72 75 76 79 82
55 55 54 55 56 55 50 46 46 45 45 45 47 48 48 46 46 46 47 47 47 48 50 51 50 52 54 54 51 57 60 61 63 65 67 69 70 72 73 76 79 81 83 84
45 45 44 45 46 44 42 41 42 42 43 45 46 47 49 49 47 49 50 51 51 52 53 53 55 57 56 55 59 62 64 65 66 68 69 71 73 75 77 78 78 78 77 75
45 45 44 45 44 44 43 45 46 47 48 48 49 49 49 50 51 52 52 52 55 57 57 57 56 56 57 62 63 64 64 66 68 69 71 73 74 76 76 74 73 72 71 69
49 50 50 48 46 45 47 49 49 51 50 49 48 48 48 48 50 52 56 58 59 60 61 60 61 59 61 62 63 65 66 68 68 69 71 72 71 69 69 68 67 64 64 66
55 53 51 51 50 50 50 50 50 50 49 49 48 47 48 50 52 54 57 59 62 63 63 63 61 60 64 65 66 68 67 67 68 68 68 68 67 66 63 60 57 56 58 58
59 57 54 52 51 52 53 53 52 50 47 47 47 49 50 52 55 57 58 60 62 62 61 60 59 63 66 68 69 67 67 67 68 68 68 66 63 59 54 52 51 53 54 52
47 48 48 50 51 52 49 47 47 48 48 49 50 51 53 55 56 57 58 58 59 58 58 57 63 66 66 65 63 63 63 64 64 63 58 54 51 50 49 50 52 51 52 54
42 42 44 45 46 46 46 46 46 47 48 49 50 50 51 52 52 53 54 53 55 55 56 61 62 62 60 58 56 55 55 53 50 47 46 46 46 48 48 46 48 51 55 50
38 39 40 42 42 44 45 45 46 47 47 48 49 49 48 48 48 48 48 50 50 53 56 56 55 52 49 49 48 45 43 43 43 42 43 44 46 48 48 47 52 52 49 50
41 40 40 40 41 43 43 44 44 44 44 43 44 45 44 44 43 42 45 46 47 46 43 41 41 40 39 38 38 39 40 40 41 42 43 46 49 53 54 51 46 48 50 50
Wind_Direction
303 309 312 311 316 325 321 319 312 302 313 348 9 17 22 32 42 41 42 44 42 41 41 41 52 56 49 51 57 62 64 53 79 149 122 172 173 170 168 177 182 190 198 202
293 299 302 305 306 314 319 314 308 301 292 293 310 341 12 21 29 42 49 51 61 58 55 49 45 48 47 56 64 59 51 54 44 44 186 185 194 197 203 209 210 212 220 224
285 291 295 299 302 303 310 312 306 302 292 285 283 285 307 343 3 22 42 57 61 63 70 73 70 70 62 58 49 41 46 112 84 297 305 297 280 269 252 243 244 244 259 257
278 283 287 291 296 299 298 304 303 298 292 283 276 270 272 282 296 321 350 17 41 59 60 59 65 71 72 70 68 64 58 48 357 279 268 262 262 260 261 265 267 269 264 266
271 275 282 284 286 291 291 297 298 293 292 285 277 270 267 264 268 273 285 291 302 323 349 8 20 30 32 54 51 73 64 35 351 328 304 277 271 271 276 273 272 267 265 263
266 271 276 279 282 284 288 290 294 291 284 282 279 274 270 265 264 259 263 269 272 281 295 302 303 314 327 329 336 336 331 327 319 310 297 280 283 288 293 289 285 286 282 284
264 268 271 274 277 280 280 284 286 284 283 278 276 274 275 269 265 262 260 259 262 268 272 278 286 297 303 303 308 310 312 312 312 313 307 299 296 290 286 286 286 286 285 285
260 263 268 270 273 275 277 278 281 281 276 273 272 270 270 271 270 266 263 261 264 266 269 272 274 279 282 283 288 296 299 301 301 301 296 294 297 296 293 291 286 284 283 282
258 260 264 268 269 271 272 273 275 277 275 269 267 268 269 268 268 270 268 267 265 266 269 273 276 277 282 286 288 290 291 292 294 295 295 296 300 294 288 284 282 283 284 286
256 259 262 265 268 270 267 268 269 271 273 265 262 264 265 266 264 264 264 264 264 266 269 273 278 281 284 285 285 286 287 288 289 292 292 293 293 290 288 290 290 290 290 292
252 256 260 263 265 268 268 267 266 265 272 267 259 261 262 265 266 264 263 263 267 270 271 274 277 279 282 285 287 288 288 288 289 290 293 291 291 288 287 287 288 291 292 292
252 254 258 262 264 267 267 267 265 262 266 266 262 259 259 261 264 265 264 265 266 267 270 274 277 280 282 283 284 285 285 286 288 293 291 292 291 288 286 289 291 291 292 293
249 253 257 260 262 262 263 266 262 261 260 265 262 261 260 261 263 263 264 264 266 267 270 273 275 277 281 282 283 284 284 286 289 288 290 290 287 287 289 290 290 291 292 293
251 252 253 257 260 263 259 259 264 263 258 258 261 261 262 262 263 265 265 265 267 270 273 274 276 279 279 280 281 282 285 287 287 287 287 284 285 287 288 288 290 291 292 291
247 253 252 254 259 259 258 260 261 261 259 259 259 261 262 264 266 267 267 268 270 272 273 274 275 277 280 281 282 286 286 288 287 285 286 287 289 289 290 291 291 290 290 289
244 244 248 254 256 256 254 255 253 255 256 257 256 258 262 263 263 263 264 265 266 266 268 271 275 277 277 279 283 285 285 282 280 282 283 284 285 285 285 284 285 286 287 288
242 244 244 247 249 253 251 249 251 251 253 256 257 257 259 259 260 261 261 260 263 267 270 271 274 276 277 281 285 286 282 284 285 287 286 286 285 286 287 288 288 289 289 288
239 240 240 241 242 239 238 241 246 249 251 252 254 259 260 259 259 257 259 263 265 268 271 274 276 279 281 285 285 283 283 285 285 285 285 285 286 287 287 286 287 287 287 287
223 225 225 226 228 232 234 238 244 247 248 251 254 257 259 261 261 262 265 266 268 270 271 274 278 282 284 282 282 283 285 285 285 285 286 286 287 287 288 288 288 288 289 290
222 222 226 229 232 235 236 238 239 241 244 249 254 257 260 264 266 268 270 271 271 273 276 278 278 282 279 280 282 284 284 283 284 284 285 286 286 287 287 288 289 289 290 290
226 229 230 231 232 233 237 240 241 245 248 252 256 260 262 264 267 269 270 272 275 276 277 277 281 282 280 282 283 284 284 284 285 286 286 287 287 288 289 290 292 292 292 293
229 229 234 236 236 237 237 240 245 249 253 256 259 262 263 264 266 268 271 272 273 276 279 280 282 281 282 284 283 283 285 287 287 288 288 289 290 290 290 289 289 290 291 293
232 234 235 235 238 239 242 246 250 252 256 256 258 260 262 264 266 268 269 271 273 276 277 279 280 280 281 281 284 287 288 289 290 290 289 290 291 292 293 296 298 296 295 299
228 230 231 233 235 238 243 248 250 251 253 256 258 259 260 264 266 268 270 271 272 274 276 278 276 277 279 283 286 288 289 288 288 289 291 293 293 294 297 297 298 299 301 302
229 231 234 237 240 242 243 244 246 250 253 256 258 260 262 263 264 266 268 270 271 274 274 275 278 282 285 289 291 289 288 288 290 295 295 296 297 297 297 298 298 297 300 300
231 233 237 239 241 242 245 247 249 250 252 253 255 257 259 260 262 265 267 269 273 275 279 284 289 293 292 290 290 290 292 297 297 299 299 299 298 299 300 300 299 299 298 297
231 230 234 236 238 239 241 244 245 247 248 248 251 254 258 263 266 270 272 277 283 288 290 291 293 294 295 294 295 299 299 299 298 298 299 301 300 301 301 301 298 297 298 299